Flag for Norway Weather past 2 weeks in Jørpeland, Norway

Now
27 °F

Clear.


Feels Like: 21 °F
Forecast: 17 / 28 °F
Wind: 5 mph from Northeast

Location: Stavanger / Sola

Current Time: Feb 1, 2015 at 8:25:47 AM

Latest Report: Feb 1, 2015 at 7:50 AM


Visibility: 10 mi

Pressure: 29.12 "Hg

Humidity: 80%

Dew point: 21 °F

Location of JørpelandLocation

Historic Weather in Jørpeland — Graph

°F

Jørpeland temperature yesterday

Maximum temperature yesterday: 37 °F (at 5:50 AM)
Minimum temperature yesterday: 28 °F (at 10:50 PM)
Average temperature yesterday: 35 °F

Past Weeks' High & Low Weather Summary

 TemperatureHumidityPressure
High45 °F (Jan 25, 11:50 PM)100% (Jan 18, 9:20 PM)30.21 "Hg (Jan 18, 9:20 PM)
Low23 °F (Jan 22, 4:50 AM)45% (Jan 21, 3:50 PM)28.50 "Hg (Jan 29, 11:20 PM)
Average37 °F80%29.58 "Hg
* Reported Jan 17 7:20 AM — Feb 1 7:20 AM, Jørpeland, Weather by CustomWeather, © 2014

Note: Actual official high and low records may vary slightly from our data, if they occured in-between our weather recording intervals... More about our weather records

Advertising

Jørpeland weather history for previous 24 hours

 ConditionsComfort  
Time TempWeatherWind HumidityBarometerVisibility
7:20 AM
Feb 1
28 °FClear.2 mph74%29.09 "Hg10 mi
6:50 AM30 °FClear.6 mph75%29.09 "Hg10 mi
6:20 AM28 °FClear.No wind74%29.09 "Hg10 mi
5:50 AM28 °FClear.1 mph80%29.09 "Hg10 mi
4:50 AM27 °FClear.1 mph80%29.09 "Hg10 mi
3:50 AM25 °FClear.No wind86%29.09 "Hg10 mi
2:50 AM25 °FClear.1 mph86%29.09 "Hg10 mi
1:50 AM25 °FClear.2 mph86%29.09 "Hg10 mi
1:20 AM27 °FClear.3 mph86%29.09 "Hg10 mi
12:50 AM27 °FClear.1 mph86%29.09 "Hg10 mi
12:20 AM30 °FClear.1 mph75%29.09 "Hg10 mi
11:50 PM
Jan 31
30 °FClear.No wind75%29.09 "Hg10 mi
11:20 PM28 °FClear.1 mph80%29.09 "Hg10 mi
10:50 PM28 °FClear.No wind74%29.06 "HgN/A
10:20 PM30 °FPassing clouds.2 mph75%29.09 "HgN/A
9:50 PM32 °FPassing clouds.1 mph69%29.06 "HgN/A
9:20 PM34 °FPassing clouds.1 mph65%29.06 "HgN/A
8:50 PM32 °FPassing clouds.No wind80%29.06 "HgN/A
8:20 PM32 °FClear.No wind80%29.06 "Hg10 mi
7:50 PM32 °FClear.No wind80%29.03 "Hg10 mi
7:20 PM32 °FClear.1 mph75%29.03 "Hg10 mi
6:50 PM34 °FPassing clouds.No wind75%29.03 "HgN/A
6:20 PM36 °FPassing clouds.No wind70%29.00 "HgN/A
5:50 PM34 °FPassing clouds.2 mph65%29.00 "HgN/A
5:20 PM34 °FPassing clouds.1 mph65%29.00 "HgN/A
4:50 PM36 °FPartly sunny.1 mph60%28.97 "HgN/A
4:20 PM37 °FPartly sunny.5 mph52%28.97 "HgN/A
3:50 PM37 °FScattered showers. Broken clouds.6 mph52%28.94 "HgN/A
3:20 PM37 °FScattered showers. Partly sunny.5 mph52%28.94 "HgN/A
2:50 PM37 °FScattered showers. Partly sunny.5 mph52%28.94 "HgN/A
2:20 PM37 °FLight snow. Partly sunny.6 mph52%28.94 "HgN/A
1:50 PM37 °FPartly sunny.5 mph52%28.91 "HgN/A
1:20 PM37 °FPartly sunny.7 mph52%28.91 "HgN/A
12:50 PM37 °FPartly sunny.6 mph52%28.91 "HgN/A
12:20 PM37 °FBroken clouds.7 mph56%28.91 "HgN/A
11:50 AM37 °FPartly sunny.9 mph56%28.88 "HgN/A
11:20 AM37 °FPartly sunny.9 mph56%28.88 "HgN/A
10:50 AM37 °FPartly sunny.9 mph56%28.88 "HgN/A
10:20 AM37 °FPartly sunny.8 mph60%28.85 "HgN/A
9:50 AM37 °FPartly sunny.13 mph60%28.85 "HgN/A
9:20 AM37 °FBroken clouds.12 mph60%28.85 "HgN/A
8:50 AM37 °FPartly sunny.16 mph60%28.85 "HgN/A
8:20 AM37 °FPartly cloudy.15 mph60%28.82 "HgN/A
Weather by CustomWeather, © 2014

See weather overviewHow to use our weather pages